Alpine, TX

6:31 AM CST on December 08, 2016 (GMT -0600)
Alpine

Weather History for KE38 - May, 2013

Change the Weather History Date:

Sunday, May 26, 2013

  Actual Average (KMRF) Record (KMRF)
Temperature  
Mean Temperature 76 °F -  
Max Temperature 94 °F 85 °F 93 °F (2001)
Min Temperature 59 °F 53 °F 42 °F (2015)
Cooling Degree Days 12    
Growing Degree Days 26 (Base 50)    
Moisture  
Dew Point 52 °F    
Average Humidity 48    
Maximum Humidity 88    
Minimum Humidity 15    
Precipitation  
Precipitation 0.00 in - - ()
Sea Level Pressure  
Sea Level Pressure 30.14 in    
Wind  
Wind Speed 12 mph (SSW)    
Max Wind Speed 23 mph    
Max Gust Speed 32 mph    
Visibility 10 miles    
Events      
Averages and records for this station are not official NWS values.
T = Trace of Precipitation, MM = Missing Value Source: NWS Daily Summary

Daily Weather History Graph

Daily Weather History Graph

Search for Another Location

Airport or City:

Trip Planner

Search our weather history database for the weather conditions in past years. The results will help you decide how hot, cold, wet, or windy it might be!

Date:

Astronomy

May. 26, 2013 Rise Set
Actual Time 6:54 AM CDT 8:48 PM CDT
Civil Twilight 6:28 AM CDT 9:15 PM CDT
Nautical Twilight 5:55 AM CDT 9:48 PM CDT
Astronomical Twilight 5:21 AM CDT 10:23 PM CDT
Moon 10:40 PM CDT (5/26) 8:25 AM CDT (5/26)
Length of Visible Light 14h 47m
Length of Day
13h 54m
Waning Gibbous, 96% of the Moon is Illuminated
May 26
Waning Gibbous
May 31
Last Quarter
Jun 8
New
Jun 16
First Quarter
Jun 23
Full

Hourly Weather History & Observations

Time (CDT) Temp. Heat Index Dew Point Humidity Pressure Visibility Wind Dir Wind Speed Gust Speed Precip Events Conditions
12:15 AM 67.1 °F - 57.9 °F 72% 30.26 in 10.0 mi North 23.0 mph 32.2 mph N/A   Clear
12:35 AM 63.5 °F - 56.7 °F 78% 30.27 in 10.0 mi North 15.0 mph - N/A   Scattered Clouds
12:55 AM 63.7 °F - 55.8 °F 75% 30.27 in 10.0 mi North 10.4 mph - N/A   Scattered Clouds
1:15 AM 64.9 °F - 56.3 °F 74% 30.25 in 10.0 mi NE 12.7 mph - N/A   Scattered Clouds
1:35 AM 64.9 °F - 56.7 °F 74% 30.22 in 10.0 mi ESE 11.5 mph - N/A   Clear
1:55 AM 64.4 °F - 57.7 °F 79% 30.21 in 10.0 mi East 15.0 mph 24.2 mph N/A   Clear
2:15 AM 63.3 °F - 57.7 °F 82% 30.21 in 10.0 mi East 6.9 mph 11.5 mph N/A   Clear
2:35 AM 62.6 °F - 57.6 °F 84% 30.20 in 10.0 mi Calm Calm - N/A   Clear
2:55 AM 61.9 °F - 56.8 °F 84% 30.18 in 10.0 mi WSW 5.8 mph - N/A   Clear
3:15 AM 59.5 °F - 55.6 °F 87% 30.17 in 10.0 mi WSW 8.1 mph - N/A   Clear
3:35 AM 59.2 °F - 55.8 °F 88% 30.16 in 10.0 mi WSW 9.2 mph - N/A   Clear
3:55 AM 62.2 °F - 55.6 °F 79% 30.16 in 10.0 mi WSW 8.1 mph - N/A   Clear
4:15 AM 62.4 °F - 54.9 °F 76% 30.15 in 10.0 mi SW 8.1 mph - N/A   Clear
4:35 AM 62.4 °F - 53.4 °F 72% 30.15 in 10.0 mi WSW 8.1 mph - N/A   Clear
4:55 AM 65.1 °F - 55.4 °F 71% 30.15 in 10.0 mi SSE 4.6 mph - N/A   Clear
5:15 AM 66.6 °F - 56.1 °F 69% 30.14 in 10.0 mi Calm Calm - N/A   Clear
5:35 AM 65.5 °F - 56.1 °F 72% 30.15 in 10.0 mi SSW 8.1 mph - N/A   Clear
5:55 AM 64.0 °F - 56.7 °F 77% 30.15 in 10.0 mi WSW 5.8 mph - N/A   Clear
6:15 AM 63.5 °F - 56.1 °F 77% 30.15 in 10.0 mi WSW 6.9 mph - N/A   Clear
6:35 AM 63.7 °F - 55.6 °F 75% 30.16 in 10.0 mi Calm Calm - N/A   Clear
6:55 AM 63.5 °F - 55.4 °F 75% 30.16 in 10.0 mi SW 8.1 mph - N/A   Clear
7:15 AM 65.8 °F - 57.2 °F 74% 30.16 in 10.0 mi SSW 11.5 mph - N/A   Clear
7:35 AM 65.3 °F - 55.8 °F 71% 30.17 in 10.0 mi SW 9.2 mph - N/A   Clear
7:55 AM 66.4 °F - 56.3 °F 70% 30.17 in 10.0 mi Calm Calm - N/A   Clear
8:15 AM 68.9 °F - 56.8 °F 65% 30.19 in 10.0 mi SW 5.8 mph - N/A   Clear
8:35 AM 69.8 °F - 56.7 °F 63% 30.19 in 10.0 mi SW 10.4 mph - N/A   Clear
8:55 AM 71.6 °F - 56.3 °F 58% 30.17 in 10.0 mi WSW 15.0 mph - N/A   Clear
9:15 AM 73.8 °F - 54.9 °F 52% 30.18 in 10.0 mi SW 13.8 mph - N/A   Clear
9:35 AM 76.3 °F - 53.4 °F 45% 30.19 in 10.0 mi SW 5.8 mph - N/A   Clear
9:55 AM 78.1 °F - 52.9 °F 41% 30.19 in 10.0 mi WSW 9.2 mph - N/A   Clear
10:15 AM 78.8 °F - 51.4 °F 38% 30.17 in 10.0 mi WSW 15.0 mph - N/A   Clear
10:35 AM 79.5 °F - 52.2 °F 38% 30.17 in 10.0 mi WSW 12.7 mph 16.1 mph N/A   Clear
10:55 AM 81.0 °F - 52.2 °F 37% 30.17 in 10.0 mi SW 16.1 mph 21.9 mph N/A   Clear
11:15 AM 82.0 °F - 52.0 °F 35% 30.17 in 10.0 mi SW 16.1 mph - N/A   Clear
11:35 AM 83.1 °F - 52.0 °F 34% 30.18 in 10.0 mi SW 15.0 mph 21.9 mph N/A   Clear
11:55 AM 83.8 °F - 51.3 °F 32% 30.17 in 10.0 mi SW 15.0 mph 20.7 mph N/A   Clear
12:15 PM 84.7 °F - 50.5 °F 31% 30.17 in 10.0 mi SW 16.1 mph 19.6 mph N/A   Clear
12:35 PM 86.4 °F - 49.8 °F 28% 30.17 in 10.0 mi SW 12.7 mph 18.4 mph N/A   Clear
12:55 PM 87.3 °F - 49.5 °F 27% 30.16 in 10.0 mi SW 12.7 mph 18.4 mph N/A   Clear
1:15 PM 87.4 °F - 47.7 °F 25% 30.16 in 10.0 mi SW 12.7 mph 16.1 mph N/A   Clear
1:35 PM 88.0 °F - 48.9 °F 26% 30.16 in 10.0 mi WSW 11.5 mph 17.3 mph N/A   Clear
1:55 PM 88.0 °F - 48.9 °F 26% 30.15 in 10.0 mi SW 10.4 mph - N/A   Clear
2:15 PM 89.6 °F - 49.1 °F 25% 30.14 in 10.0 mi West 6.9 mph - N/A   Clear
2:35 PM 89.4 °F - 47.5 °F 23% 30.13 in 10.0 mi SW 3.5 mph - N/A   Clear
2:55 PM 91.4 °F - 48.4 °F 23% 30.13 in 10.0 mi SW 10.4 mph 18.4 mph N/A   Clear
3:15 PM 91.6 °F - 46.8 °F 21% 30.12 in 10.0 mi South 13.8 mph - N/A   Clear
3:35 PM 91.8 °F - 46.0 °F 21% 30.11 in 10.0 mi South 9.2 mph 18.4 mph N/A   Clear
3:55 PM 92.1 °F - 43.5 °F 19% 30.09 in 10.0 mi SSE 8.1 mph - N/A   Clear
4:15 PM 91.9 °F - 42.3 °F 18% 30.09 in 10.0 mi West 6.9 mph 20.7 mph N/A   Clear
4:35 PM 91.8 °F - 40.8 °F 17% 30.08 in 10.0 mi South 5.8 mph - N/A   Clear
4:55 PM 92.8 °F - 42.8 °F 18% 30.07 in 10.0 mi WSW 12.7 mph 17.3 mph N/A   Clear
5:15 PM 94.3 °F - 41.2 °F 16% 30.07 in 10.0 mi SW 10.4 mph 24.2 mph N/A   Clear
5:35 PM 93.2 °F - 40.5 °F 16% 30.06 in 10.0 mi SSW 9.2 mph 16.1 mph N/A   Clear
5:55 PM 93.0 °F - 40.8 °F 16% 30.05 in 10.0 mi SW 11.5 mph 16.1 mph N/A   Clear
6:15 PM 92.7 °F - 41.2 °F 17% 30.04 in 10.0 mi South 12.7 mph - N/A   Scattered Clouds
6:35 PM 92.8 °F - 40.6 °F 16% 30.04 in 10.0 mi SSW 12.7 mph 19.6 mph N/A   Scattered Clouds
6:55 PM 92.5 °F - 39.0 °F 15% 30.04 in 10.0 mi SW 8.1 mph - N/A   Mostly Cloudy
7:15 PM 92.1 °F - 38.1 °F 15% 30.04 in 10.0 mi WSW 12.7 mph - N/A   Scattered Clouds
7:55 PM 90.5 °F - 39.6 °F 17% 30.05 in 10.0 mi South 11.5 mph 18.4 mph N/A   Clear
8:15 PM 87.6 °F - 49.1 °F 26% 30.05 in 10.0 mi SSE 13.8 mph 20.7 mph N/A   Clear
8:35 PM 85.6 °F - 50.4 °F 29% 30.05 in 10.0 mi SSE 15.0 mph 24.2 mph N/A   Scattered Clouds
8:55 PM 84.0 °F - 51.8 °F 33% 30.06 in 10.0 mi SE 16.1 mph 26.5 mph N/A   Clear
9:15 PM 82.4 °F 81.4 °F 53.6 °F 37% 30.07 in 10.0 mi SSE 13.8 mph 20.7 mph N/A   Clear
9:35 PM 80.6 °F 80.8 °F 57.2 °F 45% 30.07 in 10.0 mi SSE 12.7 mph 18.4 mph N/A   Clear
9:55 PM 79.2 °F - 58.6 °F 49% 30.08 in 10.0 mi SSE 10.4 mph - N/A   Clear
10:15 PM 77.9 °F - 59.5 °F 53% 30.08 in 10.0 mi SSE 16.1 mph 24.2 mph N/A   Clear
10:35 PM 77.2 °F - 59.9 °F 55% 30.09 in 10.0 mi SSE 12.7 mph 17.3 mph N/A   Clear
10:55 PM 76.3 °F - 60.1 °F 57% 30.09 in 10.0 mi SSE 16.1 mph 21.9 mph N/A   Clear
11:15 PM 75.2 °F - 60.1 °F 59% 30.10 in 10.0 mi SSE 12.7 mph 20.7 mph N/A   Clear
11:35 PM 74.7 °F - 60.3 °F 61% 30.09 in 10.0 mi SSE 13.8 mph 21.9 mph N/A   Clear
11:55 PM 74.3 °F - 60.1 °F 61% 30.09 in 10.0 mi SSE 15.0 mph 20.7 mph N/A   Clear